ANZ952 NZAA-NFFN

Flight info

Callsign ANZ952
Flight time 2h 28m
Altitude 38000
Route KALAG A578 AGTOS A577 MI
Aircraft B789/H-SDE1E2E3FGHIJ2J3J4J5M1RWXY/LB1D1

Departure

Time 2026-05-07 04:47
Airport Auckland International Airport (NZAA)

Arrival

Time 2026-05-07 07:16
Airport Nadi International Airport (NFFN)
Time Latitude Longitude Altitude Speed Heading
2026-05-07 04:18 -37.00655 174.78161 31 ft 0 kts 116°
2026-05-07 04:36 -37.00650 174.78149 31 ft 3 kts 116°
2026-05-07 04:37 -37.00641 174.78127 30 ft 3 kts 116°
2026-05-07 04:37 -37.00632 174.78104 30 ft 3 kts 118°
2026-05-07 04:37 -37.00623 174.78082 30 ft 3 kts 121°
2026-05-07 04:37 -37.00611 174.78061 31 ft 3 kts 129°
2026-05-07 04:38 -37.00598 174.78044 30 ft 3 kts 145°
2026-05-07 04:38 -37.00586 174.78035 30 ft 1 kts 162°
2026-05-07 04:38 -37.00585 174.78034 29 ft 0 kts 162°
2026-05-07 04:40 -37.00585 174.78035 29 ft 1 kts 162°
2026-05-07 04:40 -37.00602 174.78041 30 ft 4 kts 162°
2026-05-07 04:41 -37.00636 174.78051 31 ft 7 kts 175°
2026-05-07 04:41 -37.00688 174.78036 31 ft 9 kts 200°
2026-05-07 04:41 -37.00752 174.78010 31 ft 11 kts 188°
2026-05-07 04:41 -37.00832 174.78027 32 ft 13 kts 163°
2026-05-07 04:42 -37.00923 174.78067 32 ft 15 kts 161°
2026-05-07 04:42 -37.01008 174.78103 33 ft 8 kts 162°
2026-05-07 04:42 -37.01052 174.78090 33 ft 6 kts 230°
2026-05-07 04:42 -37.01073 174.78030 32 ft 10 kts 251°
2026-05-07 04:43 -37.01097 174.77943 32 ft 12 kts 251°
2026-05-07 04:43 -37.01125 174.77837 29 ft 14 kts 252°
2026-05-07 04:43 -37.01161 174.77709 28 ft 17 kts 249°
2026-05-07 04:43 -37.01233 174.77643 30 ft 12 kts 175°
2026-05-07 04:44 -37.01294 174.77603 32 ft 9 kts 238°
2026-05-07 04:44 -37.01317 174.77522 31 ft 11 kts 252°
2026-05-07 04:44 -37.01342 174.77424 31 ft 13 kts 252°
2026-05-07 04:44 -37.01372 174.77318 32 ft 13 kts 250°
2026-05-07 04:45 -37.01402 174.77213 32 ft 14 kts 250°
2026-05-07 04:45 -37.01440 174.77112 31 ft 6 kts 210°
2026-05-07 04:45 -37.01475 174.77102 31 ft 6 kts 192°
2026-05-07 04:45 -37.01518 174.77091 31 ft 7 kts 192°
2026-05-07 04:46 -37.01567 174.77078 30 ft 7 kts 186°
2026-05-07 04:46 -37.01608 174.77101 31 ft 6 kts 131°
2026-05-07 04:46 -37.01616 174.77149 32 ft 6 kts 85°
2026-05-07 04:46 -37.01601 174.77210 32 ft 9 kts 71°
2026-05-07 04:47 -37.01527 174.77465 37 ft 66 kts 70°
2026-05-07 04:47 -37.01284 174.78330 32 ft 142 kts 70°
2026-05-07 04:47 -37.00923 174.79676 469 ft 166 kts 69°
2026-05-07 04:47 -37.00546 174.81084 1105 ft 177 kts 66°
2026-05-07 04:48 -37.00135 174.82541 1973 ft 183 kts 67°
2026-05-07 04:48 -36.99682 174.84153 2514 ft 210 kts 67°
2026-05-07 04:48 -36.99170 174.85993 3017 ft 240 kts 68°
2026-05-07 04:48 -36.98609 174.88027 3947 ft 250 kts 68°
2026-05-07 04:49 -36.98040 174.90080 5046 ft 256 kts 68°
2026-05-07 04:49 -36.97444 174.92221 6084 ft 264 kts 68°
2026-05-07 04:49 -36.96832 174.94413 7111 ft 271 kts 68°
2026-05-07 04:49 -36.96206 174.96660 8131 ft 276 kts 68°
2026-05-07 04:50 -36.95565 174.98954 9125 ft 283 kts 68°
2026-05-07 04:50 -36.94739 175.01225 10101 ft 285 kts 48°
2026-05-07 04:50 -36.93236 175.02908 10608 ft 302 kts 25°
2026-05-07 04:50 -36.91198 175.03661 10990 ft 322 kts
2026-05-07 04:51 -36.88902 175.03611 11631 ft 334 kts 356°
2026-05-07 04:51 -36.86586 175.03462 12597 ft 339 kts 355°
2026-05-07 04:51 -36.84209 175.03309 13485 ft 345 kts 356°
2026-05-07 04:51 -36.81784 175.03190 14329 ft 352 kts 356°
2026-05-07 04:52 -36.79322 175.03077 15159 ft 357 kts 356°
2026-05-07 04:52 -36.76822 175.02947 15963 ft 362 kts 356°
2026-05-07 04:52 -36.74292 175.02811 16766 ft 367 kts 356°
2026-05-07 04:52 -36.71723 175.02677 17567 ft 372 kts 356°
2026-05-07 04:53 -36.69125 175.02546 18348 ft 376 kts 356°
2026-05-07 04:53 -36.66490 175.02411 19016 ft 382 kts 356°
2026-05-07 04:53 -36.63815 175.02272 19636 ft 387 kts 356°
2026-05-07 04:53 -36.61103 175.02132 20271 ft 393 kts 356°
2026-05-07 04:54 -36.58352 175.01991 20870 ft 398 kts 356°
2026-05-07 04:54 -36.55564 175.01848 21471 ft 404 kts 356°
2026-05-07 04:54 -36.52737 175.01703 22063 ft 409 kts 356°
2026-05-07 04:54 -36.49878 175.01556 22642 ft 414 kts 356°
2026-05-07 04:55 -36.46980 175.01409 23204 ft 419 kts 356°
2026-05-07 04:55 -36.44048 175.01574 23707 ft 426 kts
2026-05-07 04:55 -36.41084 175.01930 24194 ft 430 kts
2026-05-07 04:55 -36.38096 175.02292 24667 ft 433 kts
2026-05-07 04:56 -36.35079 175.02638 25110 ft 437 kts
2026-05-07 04:56 -36.32035 175.02982 25566 ft 441 kts
2026-05-07 04:56 -36.28967 175.03337 26015 ft 445 kts
2026-05-07 04:56 -36.25873 175.03698 26460 ft 448 kts
2026-05-07 04:57 -36.22757 175.04058 26897 ft 452 kts
2026-05-07 04:57 -36.19612 175.04419 27327 ft 456 kts
2026-05-07 04:57 -36.16443 175.04784 27757 ft 459 kts
2026-05-07 04:57 -36.13276 175.05151 28617 ft 446 kts
2026-05-07 04:58 -36.10219 175.05506 29505 ft 443 kts
2026-05-07 04:58 -36.07121 175.05857 29796 ft 449 kts
2026-05-07 04:58 -36.04003 175.06216 30253 ft 451 kts
2026-05-07 04:58 -36.00863 175.06576 30574 ft 455 kts
2026-05-07 04:59 -35.97701 175.06938 30902 ft 459 kts
2026-05-07 04:59 -35.94512 175.07303 31221 ft 462 kts
2026-05-07 04:59 -35.91302 175.07672 31544 ft 465 kts
2026-05-07 04:59 -35.88069 175.08042 31854 ft 468 kts
2026-05-07 05:00 -35.84813 175.08414 32158 ft 471 kts
2026-05-07 05:00 -35.81537 175.08788 32461 ft 474 kts
2026-05-07 05:00 -35.78244 175.09163 32771 ft 477 kts
2026-05-07 05:00 -35.74927 175.09542 33060 ft 480 kts
2026-05-07 05:01 -35.71590 175.09922 33343 ft 483 kts
2026-05-07 05:01 -35.68234 175.10304 33626 ft 486 kts
2026-05-07 05:01 -35.64859 175.10688 33891 ft 488 kts
2026-05-07 05:01 -35.61465 175.11074 34158 ft 491 kts
2026-05-07 05:02 -35.58052 175.11461 34396 ft 494 kts
2026-05-07 05:02 -35.54626 175.11850 34643 ft 495 kts
2026-05-07 05:02 -35.51191 175.12240 34947 ft 495 kts
2026-05-07 05:02 -35.47765 175.12628 35297 ft 495 kts
2026-05-07 05:03 -35.44341 175.13015 35637 ft 494 kts
2026-05-07 05:03 -35.40916 175.13402 35965 ft 493 kts
2026-05-07 05:03 -35.37504 175.13788 36294 ft 493 kts
2026-05-07 05:03 -35.34092 175.14173 36609 ft 492 kts
2026-05-07 05:04 -35.30683 175.14557 36913 ft 492 kts
2026-05-07 05:04 -35.27277 175.14941 37220 ft 491 kts
2026-05-07 05:04 -35.23874 175.15324 37529 ft 491 kts
2026-05-07 05:04 -35.20479 175.15706 37858 ft 490 kts
2026-05-07 05:05 -35.17080 175.16088 38008 ft 493 kts
2026-05-07 05:05 -35.13657 175.16472 38015 ft 494 kts
2026-05-07 05:05 -35.06849 175.17237 38009 ft 489 kts
2026-05-07 05:06 -35.00073 175.17994 38008 ft 489 kts
2026-05-07 05:06 -34.93290 175.18753 38014 ft 490 kts
2026-05-07 05:07 -34.86507 175.19510 38009 ft 489 kts
2026-05-07 05:07 -34.79716 175.20266 38010 ft 491 kts
2026-05-07 05:08 -34.72910 175.21024 38009 ft 491 kts
2026-05-07 05:08 -34.66141 175.21775 38014 ft 492 kts
2026-05-07 05:09 -34.59310 175.22533 38011 ft 493 kts
2026-05-07 05:09 -34.52483 175.23288 38011 ft 493 kts
2026-05-07 05:10 -34.45653 175.24043 38011 ft 493 kts
2026-05-07 05:10 -34.39931 175.24674 38011 ft 493 kts
2026-05-07 05:11 -34.33136 175.25423 38010 ft 494 kts
2026-05-07 05:11 -34.26299 175.26175 38121 ft 492 kts
2026-05-07 05:12 -34.22884 175.26550 38222 ft 494 kts
2026-05-07 05:12 -34.19448 175.26926 38220 ft 497 kts
2026-05-07 05:12 -34.12574 175.27682 38215 ft 495 kts
2026-05-07 05:13 -34.05707 175.28432 38215 ft 495 kts
2026-05-07 05:13 -33.98842 175.29183 38214 ft 496 kts
2026-05-07 05:14 -33.91962 175.29933 38211 ft 496 kts
2026-05-07 05:14 -33.85093 175.30681 38214 ft 496 kts
2026-05-07 05:15 -33.78222 175.31429 38213 ft 496 kts
2026-05-07 05:15 -33.71346 175.32175 38211 ft 496 kts
2026-05-07 05:16 -33.64488 175.33159 38223 ft 497 kts
2026-05-07 05:16 -33.57608 175.34142 38218 ft 499 kts
2026-05-07 05:17 -33.50723 175.35206 38223 ft 499 kts
2026-05-07 05:17 -33.43839 175.36221 38214 ft 498 kts
2026-05-07 05:18 -33.36956 175.37260 38217 ft 499 kts
2026-05-07 05:18 -33.30060 175.38286 38212 ft 500 kts
2026-05-07 05:19 -33.23208 175.39311 38209 ft 500 kts
2026-05-07 05:19 -33.16303 175.40338 38203 ft 500 kts
2026-05-07 05:20 -33.09396 175.41366 38209 ft 500 kts
2026-05-07 05:20 -33.02492 175.42391 38207 ft 500 kts
2026-05-07 05:21 -32.92116 175.43928 38205 ft 501 kts
2026-05-07 05:22 -32.85189 175.44953 38209 ft 502 kts
2026-05-07 05:22 -32.78251 175.45977 38204 ft 503 kts
2026-05-07 05:23 -32.71303 175.47002 38212 ft 503 kts
2026-05-07 05:23 -32.64348 175.48026 38210 ft 504 kts
2026-05-07 05:24 -32.57390 175.49048 38204 ft 504 kts
2026-05-07 05:24 -32.50429 175.50069 38203 ft 504 kts
2026-05-07 05:25 -32.43459 175.51091 38202 ft 505 kts
2026-05-07 05:25 -32.36484 175.52111 38203 ft 505 kts
2026-05-07 05:26 -32.29503 175.53131 38197 ft 506 kts
2026-05-07 05:26 -32.22517 175.54149 38197 ft 506 kts
2026-05-07 05:27 -32.15565 175.55162 38192 ft 507 kts
2026-05-07 05:27 -32.08561 175.56180 38189 ft 507 kts
2026-05-07 05:28 -32.01553 175.57197 38190 ft 507 kts
2026-05-07 05:28 -31.94540 175.58213 38187 ft 509 kts
2026-05-07 05:29 -31.87510 175.59231 38188 ft 509 kts
2026-05-07 05:29 -31.80472 175.60248 38188 ft 510 kts
2026-05-07 05:30 -31.73427 175.61264 38188 ft 511 kts
2026-05-07 05:30 -31.66371 175.62281 38187 ft 511 kts
2026-05-07 05:31 -31.59311 175.63296 38184 ft 511 kts
2026-05-07 05:31 -31.52244 175.64311 38183 ft 512 kts
2026-05-07 05:32 -31.45171 175.65325 38182 ft 513 kts
2026-05-07 05:32 -31.38081 175.66340 38179 ft 514 kts
2026-05-07 05:33 -31.30977 175.67355 38176 ft 515 kts
2026-05-07 05:33 -31.23864 175.68371 38176 ft 515 kts
2026-05-07 05:34 -31.16748 175.69385 38173 ft 515 kts
2026-05-07 05:34 -31.09628 175.70398 38174 ft 515 kts
2026-05-07 05:35 -31.02506 175.71410 38176 ft 516 kts
2026-05-07 05:35 -30.95380 175.72420 38176 ft 516 kts
2026-05-07 05:36 -30.88249 175.73432 38175 ft 516 kts
2026-05-07 05:36 -30.81103 175.74437 38173 ft 517 kts
2026-05-07 05:37 -30.73951 175.75445 38168 ft 519 kts
2026-05-07 05:37 -30.66785 175.76452 38170 ft 519 kts
2026-05-07 05:38 -30.59602 175.77460 38168 ft 520 kts
2026-05-07 05:38 -30.52407 175.78468 38166 ft 522 kts
2026-05-07 05:39 -30.45188 175.79479 38164 ft 523 kts
2026-05-07 05:39 -30.37959 175.80489 38159 ft 523 kts
2026-05-07 05:40 -30.30730 175.81497 38158 ft 524 kts
2026-05-07 05:40 -30.23492 175.82506 38161 ft 524 kts
2026-05-07 05:41 -30.16245 175.83514 38160 ft 525 kts
2026-05-07 05:41 -30.08988 175.84522 38160 ft 526 kts
2026-05-07 05:42 -30.01720 175.85530 38154 ft 526 kts
2026-05-07 05:42 -29.94449 175.86538 38154 ft 527 kts
2026-05-07 05:43 -29.87215 175.87538 38155 ft 527 kts
2026-05-07 05:43 -29.79928 175.88544 38153 ft 527 kts
2026-05-07 05:44 -29.72641 175.89549 38150 ft 528 kts
2026-05-07 05:44 -29.65347 175.90553 38149 ft 528 kts
2026-05-07 05:45 -29.58044 175.91557 38148 ft 529 kts
2026-05-07 05:45 -29.50731 175.92562 38147 ft 529 kts
2026-05-07 05:46 -29.43416 175.93564 38146 ft 530 kts
2026-05-07 05:46 -29.36098 175.94566 38142 ft 530 kts
2026-05-07 05:47 -29.28758 175.95569 38137 ft 532 kts
2026-05-07 05:47 -29.21410 175.96573 38143 ft 532 kts
2026-05-07 05:48 -29.14059 175.97574 38141 ft 532 kts
2026-05-07 05:48 -29.06693 175.98576 38136 ft 534 kts
2026-05-07 05:49 -28.99314 175.99580 38133 ft 534 kts
2026-05-07 05:49 -28.91929 176.00582 38137 ft 535 kts
2026-05-07 05:50 -28.84523 176.01585 38141 ft 536 kts
2026-05-07 05:50 -28.77114 176.02588 38138 ft 537 kts
2026-05-07 05:51 -28.69688 176.03591 38136 ft 538 kts
2026-05-07 05:51 -28.62251 176.04595 38134 ft 539 kts
2026-05-07 05:52 -28.54802 176.05599 38128 ft 539 kts
2026-05-07 05:52 -28.47345 176.06602 38124 ft 540 kts
2026-05-07 05:53 -28.39939 176.07598 38122 ft 539 kts
2026-05-07 05:53 -28.32481 176.08598 38120 ft 540 kts
2026-05-07 05:54 -28.25018 176.09598 38127 ft 540 kts
2026-05-07 05:54 -28.17549 176.10597 38122 ft 541 kts
2026-05-07 05:55 -28.10078 176.11596 38118 ft 541 kts
2026-05-07 05:55 -28.02599 176.12593 38115 ft 541 kts
2026-05-07 05:56 -27.95107 176.13591 38118 ft 543 kts
2026-05-07 05:56 -27.87601 176.14590 38114 ft 544 kts
2026-05-07 05:57 -27.80084 176.15589 38110 ft 544 kts
2026-05-07 05:57 -27.72562 176.16587 38109 ft 544 kts
2026-05-07 05:58 -27.66312 176.17415 38110 ft 544 kts
2026-05-07 05:58 -27.58786 176.18410 38108 ft 546 kts
2026-05-07 05:59 -27.51241 176.19408 38109 ft 546 kts
2026-05-07 05:59 -27.43697 176.20403 38104 ft 546 kts
2026-05-07 06:00 -27.36133 176.21400 38108 ft 548 kts
2026-05-07 06:00 -27.28548 176.22399 38103 ft 549 kts
2026-05-07 06:01 -27.20957 176.23397 38103 ft 549 kts
2026-05-07 06:01 -27.13363 176.24393 38101 ft 549 kts
2026-05-07 06:02 -27.05773 176.25389 38100 ft 549 kts
2026-05-07 06:02 -26.98170 176.26383 38095 ft 551 kts
2026-05-07 06:03 -26.90560 176.27379 38093 ft 550 kts
2026-05-07 06:03 -26.82946 176.28371 38321 ft 552 kts
2026-05-07 06:03 -26.79182 176.28863 38624 ft 551 kts
2026-05-07 06:04 -26.75323 176.29367 38868 ft 552 kts 360°
2026-05-07 06:04 -26.71511 176.29863 39155 ft 550 kts
2026-05-07 06:04 -26.67766 176.30351 39482 ft 548 kts
2026-05-07 06:04 -26.63990 176.30843 39816 ft 545 kts
2026-05-07 06:05 -26.60233 176.31331 40159 ft 542 kts
2026-05-07 06:05 -26.56502 176.31815 40497 ft 539 kts
2026-05-07 06:05 -26.52786 176.32297 40822 ft 536 kts
2026-05-07 06:05 -26.49089 176.32777 41150 ft 533 kts
2026-05-07 06:06 -26.45410 176.33254 41454 ft 531 kts
2026-05-07 06:06 -26.41748 176.33728 41760 ft 529 kts
2026-05-07 06:06 -26.38104 176.34200 42074 ft 526 kts
2026-05-07 06:07 -26.30802 176.35142 42085 ft 528 kts
2026-05-07 06:07 -26.23546 176.36083 42080 ft 523 kts
2026-05-07 06:08 -26.16328 176.37011 42077 ft 522 kts
2026-05-07 06:08 -26.09112 176.37943 42080 ft 522 kts
2026-05-07 06:09 -26.01896 176.38871 42077 ft 522 kts
2026-05-07 06:09 -25.94680 176.39799 42082 ft 521 kts
2026-05-07 06:10 -25.87470 176.40724 42074 ft 522 kts
2026-05-07 06:10 -25.80252 176.41650 42071 ft 522 kts
2026-05-07 06:11 -25.73043 176.42573 42073 ft 521 kts
2026-05-07 06:11 -25.65833 176.43495 42071 ft 522 kts
2026-05-07 06:12 -25.58615 176.44417 42072 ft 522 kts
2026-05-07 06:12 -25.51398 176.45338 42064 ft 522 kts
2026-05-07 06:13 -25.44187 176.46257 42062 ft 522 kts
2026-05-07 06:13 -25.36967 176.47176 42064 ft 522 kts
2026-05-07 06:14 -25.29741 176.48095 42064 ft 523 kts
2026-05-07 06:14 -25.22517 176.49012 42060 ft 522 kts
2026-05-07 06:15 -25.15315 176.49926 42058 ft 520 kts
2026-05-07 06:15 -25.08131 176.50835 42056 ft 521 kts
2026-05-07 06:16 -25.00930 176.51747 42060 ft 521 kts
2026-05-07 06:16 -24.93778 176.52652 42050 ft 521 kts
2026-05-07 06:17 -24.86582 176.53561 42049 ft 521 kts
2026-05-07 06:17 -24.79374 176.54471 42049 ft 521 kts
2026-05-07 06:18 -24.72178 176.55378 42045 ft 520 kts
2026-05-07 06:18 -24.64987 176.56283 42047 ft 520 kts
2026-05-07 06:19 -24.57791 176.57189 42046 ft 521 kts
2026-05-07 06:19 -24.50586 176.58094 42045 ft 521 kts
2026-05-07 06:20 -24.43390 176.58997 42042 ft 520 kts
2026-05-07 06:20 -24.36205 176.59898 42040 ft 519 kts
2026-05-07 06:21 -24.29033 176.60796 42041 ft 519 kts
2026-05-07 06:21 -24.21848 176.61694 42039 ft 520 kts
2026-05-07 06:22 -24.14660 176.62592 42032 ft 519 kts
2026-05-07 06:22 -24.03901 176.63934 42030 ft 519 kts
2026-05-07 06:23 -23.96726 176.64828 42029 ft 519 kts
2026-05-07 06:23 -23.89545 176.65721 42029 ft 520 kts
2026-05-07 06:24 -23.82348 176.66616 42029 ft 521 kts
2026-05-07 06:24 -23.75159 176.67509 42028 ft 520 kts
2026-05-07 06:25 -23.67974 176.68400 42025 ft 519 kts
2026-05-07 06:25 -23.60798 176.69288 42024 ft 519 kts
2026-05-07 06:26 -23.53615 176.70177 42025 ft 519 kts
2026-05-07 06:26 -23.46454 176.71063 42024 ft 517 kts
2026-05-07 06:27 -23.39301 176.71945 42025 ft 518 kts
2026-05-07 06:27 -23.32183 176.72824 42026 ft 518 kts
2026-05-07 06:28 -23.25020 176.73706 42016 ft 518 kts
2026-05-07 06:28 -23.17865 176.74587 42017 ft 517 kts
2026-05-07 06:29 -23.10711 176.75466 42013 ft 517 kts
2026-05-07 06:29 -23.03559 176.76344 42016 ft 517 kts
2026-05-07 06:30 -22.96405 176.77222 42012 ft 517 kts
2026-05-07 06:30 -22.89258 176.78098 42009 ft 517 kts
2026-05-07 06:31 -22.82120 176.78972 42010 ft 516 kts
2026-05-07 06:31 -22.74979 176.79845 42014 ft 517 kts
2026-05-07 06:32 -22.67833 176.80718 42011 ft 517 kts
2026-05-07 06:32 -22.60692 176.81589 42004 ft 517 kts
2026-05-07 06:33 -22.53550 176.82460 42011 ft 516 kts
2026-05-07 06:33 -22.46411 176.83330 42007 ft 516 kts
2026-05-07 06:34 -22.39282 176.84196 42006 ft 516 kts
2026-05-07 06:34 -22.32147 176.85063 42004 ft 516 kts
2026-05-07 06:35 -22.25004 176.85931 42001 ft 517 kts
2026-05-07 06:35 -22.17860 176.86797 42003 ft 516 kts
2026-05-07 06:36 -22.10727 176.87661 42000 ft 516 kts
2026-05-07 06:36 -22.03599 176.88524 41997 ft 515 kts
2026-05-07 06:37 -21.96528 176.89379 42001 ft 514 kts
2026-05-07 06:37 -21.89415 176.90238 42002 ft 514 kts
2026-05-07 06:38 -21.82309 176.91095 41999 ft 514 kts
2026-05-07 06:38 -21.75193 176.91953 41993 ft 515 kts
2026-05-07 06:39 -21.68080 176.92810 41993 ft 514 kts
2026-05-07 06:39 -21.60981 176.93664 41992 ft 513 kts
2026-05-07 06:40 -21.53907 176.94514 41993 ft 511 kts
2026-05-07 06:40 -21.46845 176.95362 41993 ft 511 kts
2026-05-07 06:41 -21.39763 176.96211 41991 ft 513 kts
2026-05-07 06:41 -21.32667 176.97062 41994 ft 513 kts
2026-05-07 06:42 -21.25580 176.97910 41990 ft 512 kts
2026-05-07 06:42 -21.18497 176.98757 41982 ft 512 kts
2026-05-07 06:43 -21.11414 176.99603 41986 ft 512 kts
2026-05-07 06:43 -21.04339 177.00448 41991 ft 512 kts
2026-05-07 06:44 -20.97262 177.01292 41991 ft 512 kts
2026-05-07 06:44 -20.90185 177.02135 41985 ft 511 kts
2026-05-07 06:45 -20.84315 177.02834 41989 ft 511 kts
2026-05-07 06:45 -20.77246 177.03674 41984 ft 511 kts
2026-05-07 06:46 -20.70181 177.04514 41981 ft 511 kts
2026-05-07 06:46 -20.63117 177.05352 41982 ft 510 kts
2026-05-07 06:47 -20.56061 177.06190 41986 ft 510 kts
2026-05-07 06:47 -20.49014 177.07024 41982 ft 509 kts
2026-05-07 06:48 -20.41962 177.07859 41978 ft 510 kts
2026-05-07 06:48 -20.34916 177.08693 41979 ft 509 kts
2026-05-07 06:49 -20.27896 177.09523 41592 ft 505 kts
2026-05-07 06:49 -20.24397 177.09936 40983 ft 506 kts
2026-05-07 06:49 -20.20894 177.10348 40387 ft 507 kts
2026-05-07 06:50 -20.17379 177.10763 39785 ft 510 kts
2026-05-07 06:50 -20.13837 177.11181 39157 ft 515 kts
2026-05-07 06:50 -20.10254 177.11603 38492 ft 522 kts
2026-05-07 06:50 -20.06635 177.12031 37820 ft 524 kts
2026-05-07 06:51 -20.03012 177.12461 37178 ft 524 kts
2026-05-07 06:51 -19.99392 177.12888 36540 ft 523 kts
2026-05-07 06:51 -19.95773 177.13312 35908 ft 523 kts
2026-05-07 06:51 -19.92153 177.13738 35284 ft 524 kts
2026-05-07 06:52 -19.88530 177.14165 34659 ft 524 kts
2026-05-07 06:52 -19.84904 177.14593 34033 ft 525 kts
2026-05-07 06:52 -19.81274 177.15019 33371 ft 524 kts
2026-05-07 06:52 -19.77657 177.15444 32747 ft 523 kts
2026-05-07 06:53 -19.74050 177.15869 32134 ft 520 kts
2026-05-07 06:53 -19.70458 177.16290 31526 ft 518 kts
2026-05-07 06:53 -19.66883 177.16710 30907 ft 516 kts
2026-05-07 06:53 -19.63324 177.17127 30309 ft 513 kts
2026-05-07 06:54 -19.59784 177.17542 29665 ft 510 kts
2026-05-07 06:54 -19.56275 177.17954 29069 ft 505 kts
2026-05-07 06:54 -19.52807 177.18361 28491 ft 499 kts
2026-05-07 06:54 -19.49373 177.18763 27930 ft 494 kts
2026-05-07 06:55 -19.45975 177.19160 27346 ft 489 kts
2026-05-07 06:55 -19.42613 177.19554 26790 ft 484 kts
2026-05-07 06:55 -19.39286 177.19943 26242 ft 479 kts
2026-05-07 06:55 -19.35993 177.20328 25685 ft 474 kts
2026-05-07 06:56 -19.32733 177.20709 25163 ft 469 kts
2026-05-07 06:56 -19.29509 177.20989 24635 ft 461 kts 359°
2026-05-07 06:56 -19.26324 177.21256 24112 ft 458 kts
2026-05-07 06:56 -19.23166 177.21552 23595 ft 453 kts
2026-05-07 06:57 -19.20039 177.21816 23038 ft 448 kts
2026-05-07 06:57 -19.16956 177.22058 22533 ft 441 kts
2026-05-07 06:57 -19.13919 177.22306 22039 ft 435 kts
2026-05-07 06:57 -19.10926 177.22562 21557 ft 428 kts
2026-05-07 06:58 -19.07974 177.22811 21077 ft 423 kts
2026-05-07 06:58 -19.05066 177.23050 20607 ft 417 kts
2026-05-07 06:58 -19.02192 177.23287 20144 ft 412 kts
2026-05-07 06:58 -18.99354 177.23524 19689 ft 406 kts
2026-05-07 06:59 -18.96549 177.23758 19238 ft 401 kts
2026-05-07 06:59 -18.93783 177.23987 18795 ft 397 kts
2026-05-07 06:59 -18.91083 177.24211 18364 ft 392 kts
2026-05-07 06:59 -18.88380 177.24435 17893 ft 387 kts
2026-05-07 07:00 -18.85714 177.24657 17461 ft 381 kts
2026-05-07 07:00 -18.83088 177.24875 17038 ft 375 kts
2026-05-07 07:00 -18.80510 177.25088 16624 ft 369 kts
2026-05-07 07:00 -18.77965 177.25299 16227 ft 363 kts
2026-05-07 07:01 -18.75470 177.25506 15862 ft 357 kts
2026-05-07 07:01 -18.72972 177.25711 15111 ft 364 kts
2026-05-07 07:01 -18.70443 177.25921 14579 ft 363 kts
2026-05-07 07:01 -18.67943 177.26129 14145 ft 358 kts
2026-05-07 07:02 -18.65476 177.26334 13738 ft 352 kts
2026-05-07 07:02 -18.63054 177.26534 13318 ft 346 kts
2026-05-07 07:02 -18.60683 177.26730 12941 ft 339 kts
2026-05-07 07:02 -18.58350 177.26923 12568 ft 335 kts
2026-05-07 07:03 -18.56017 177.27116 12200 ft 337 kts
2026-05-07 07:03 -18.53684 177.27308 11824 ft 334 kts
2026-05-07 07:03 -18.51384 177.27499 11454 ft 330 kts
2026-05-07 07:03 -18.49090 177.27689 11090 ft 330 kts
2026-05-07 07:04 -18.46816 177.27876 10729 ft 326 kts
2026-05-07 07:04 -18.44574 177.28061 10465 ft 316 kts
2026-05-07 07:04 -18.42458 177.28236 10319 ft 297 kts
2026-05-07 07:04 -18.40382 177.28407 10046 ft 301 kts
2026-05-07 07:05 -18.38310 177.28578 9743 ft 296 kts
2026-05-07 07:05 -18.36257 177.28748 9437 ft 296 kts
2026-05-07 07:05 -18.34214 177.28916 9139 ft 291 kts
2026-05-07 07:05 -18.32194 177.29083 8860 ft 290 kts
2026-05-07 07:06 -18.30188 177.29249 8566 ft 289 kts
2026-05-07 07:06 -18.28190 177.29413 8281 ft 285 kts
2026-05-07 07:06 -18.26226 177.29575 8005 ft 283 kts
2026-05-07 07:06 -18.24265 177.29737 7731 ft 282 kts
2026-05-07 07:07 -18.22334 177.29896 7438 ft 275 kts
2026-05-07 07:07 -18.20426 177.30053 7165 ft 275 kts
2026-05-07 07:07 -18.18524 177.30209 6888 ft 273 kts
2026-05-07 07:07 -18.16644 177.30364 6608 ft 267 kts
2026-05-07 07:08 -18.14803 177.30516 6343 ft 266 kts
2026-05-07 07:08 -18.12962 177.30666 6057 ft 265 kts
2026-05-07 07:08 -18.11151 177.30815 5753 ft 258 kts
2026-05-07 07:08 -18.09393 177.30960 5486 ft 248 kts
2026-05-07 07:09 -18.07714 177.31098 5253 ft 237 kts
2026-05-07 07:09 -18.06120 177.31229 5089 ft 224 kts
2026-05-07 07:09 -18.04578 177.31356 4904 ft 221 kts
2026-05-07 07:09 -18.03046 177.31482 4677 ft 220 kts
2026-05-07 07:10 -18.01539 177.31604 4425 ft 214 kts
2026-05-07 07:10 -18.00070 177.31724 4167 ft 209 kts
2026-05-07 07:10 -17.98648 177.31842 3910 ft 206 kts
2026-05-07 07:10 -17.97236 177.31957 3703 ft 200 kts
2026-05-07 07:11 -17.95852 177.32074 3496 ft 198 kts
2026-05-07 07:11 -17.94480 177.32186 3306 ft 198 kts
2026-05-07 07:11 -17.93101 177.32298 3114 ft 197 kts
2026-05-07 07:11 -17.91737 177.32410 2991 ft 193 kts
2026-05-07 07:12 -17.90461 177.32523 2986 ft 177 kts 10°
2026-05-07 07:12 -17.89436 177.33105 2922 ft 166 kts 48°
2026-05-07 07:12 -17.88535 177.33899 2717 ft 172 kts 36°
2026-05-07 07:12 -17.87566 177.34605 2517 ft 166 kts 42°
2026-05-07 07:13 -17.86686 177.35316 2304 ft 153 kts 41°
2026-05-07 07:13 -17.85869 177.35973 2114 ft 147 kts 41°
2026-05-07 07:13 -17.85046 177.36638 1928 ft 147 kts 42°
2026-05-07 07:13 -17.84237 177.37291 1745 ft 150 kts 42°
2026-05-07 07:14 -17.83410 177.37958 1539 ft 148 kts 42°
2026-05-07 07:14 -17.82599 177.38615 1344 ft 149 kts 42°
2026-05-07 07:14 -17.81777 177.39280 1156 ft 148 kts 42°
2026-05-07 07:14 -17.80954 177.39941 970 ft 149 kts 41°
2026-05-07 07:15 -17.80147 177.40596 768 ft 148 kts 40°
2026-05-07 07:15 -17.79318 177.41257 565 ft 151 kts 39°
2026-05-07 07:15 -17.78486 177.41929 387 ft 152 kts 41°
2026-05-07 07:15 -17.77651 177.42605 156 ft 152 kts 40°
2026-05-07 07:16 -17.76845 177.43248 45 ft 131 kts 39°
2026-05-07 07:16 -17.76314 177.43687 50 ft 59 kts 38°
2026-05-07 07:16 -17.76021 177.43923 50 ft 45 kts 37°
2026-05-07 07:16 -17.75813 177.44092 48 ft 34 kts 37°
2026-05-07 07:17 -17.75633 177.44238 48 ft 32 kts 38°
2026-05-07 07:17 -17.75460 177.44378 45 ft 31 kts 37°
2026-05-07 07:17 -17.75291 177.44514 45 ft 30 kts 37°
2026-05-07 07:17 -17.75135 177.44634 50 ft 20 kts 40°
2026-05-07 07:18 -17.75124 177.44747 52 ft 15 kts 103°
2026-05-07 07:18 -17.75146 177.44841 52 ft 12 kts 104°
2026-05-07 07:18 -17.75173 177.44921 54 ft 10 kts 105°
2026-05-07 07:18 -17.75190 177.44993 51 ft 8 kts 109°
2026-05-07 07:19 -17.75197 177.45016 50 ft 0 kts 107°